[[{"header":{"parameterUnit":"m.s-1","parameterCategory":1,"la1":30.2991,"la2":30.254,"lo1":-89.0895,"lo2":-89.0444,"dx":0.0017,"dy":0.0017,"nx":28,"ny":28,"refTime":"2022-11-19T09:00:00:Z","depth":0,"parameterNumber":2,"parameterNumberName":"U-component_of_WINDS"},"data":[0,0,0,0,0,0,0,0,0,0,0,0,0,0,0,0,0,0,0,0,0,0,0,0,0,0,0,0,0,0,0,0,0,0,0,0,0,0,0,0,0,0,0,0,0,0,0,0,0,0,0,0,0,0,0,0,0,0,-1.1333,-1.1333,0,-1.134,-1.134,-1.134,-1.1194,-1.119,-1.1187,-1.1183,-1.1195,-1.1199,-1.1203,0,0,0,0,0,0,0,0,0,0,0,0,0,-1.1198,-1.1202,-1.1333,-1.1333,-1.1333,-1.134,-1.134,-1.134,-1.1195,-1.119,-1.1186,-1.1181,-1.1194,-1.1199,-1.1204,0,0,0,0,0,0,0,0,0,0,0,0,0,-1.1237,-1.1203,-1.1333,-1.1262,-1.1255,-1.134,-1.134,-1.134,-1.1196,-1.119,-1.1184,-1.1179,-1.1193,-1.1198,-1.1204,-1.136,0,0,-1.1223,-1.1225,0,0,0,0,0,0,0,0,-1.1235,-1.1242,-1.1272,-1.1267,-1.126,-1.126,-1.1297,-1.1347,-1.1198,-1.1219,-1.1183,-1.1176,-1.1222,-1.1225,-1.124,-1.136,-1.1361,-1.1223,-1.1227,-1.1229,-1.1231,0,0,0,0,0,0,0,-1.1232,-1.1241,-1.1336,-1.1273,-1.1265,-1.123,-1.1229,-1.1306,-1.1254,-1.1217,-1.1206,-1.1208,-1.1218,-1.1234,-1.1239,-1.1361,-1.1223,-1.1228,-1.1232,-1.1234,-1.161,-1.1616,0,0,0,0,0,0,-1.1239,-1.1239,-1.1336,-1.1336,-1.1232,-1.1238,-1.1236,-1.1266,-1.1252,-1.1245,-1.1213,-1.1202,-1.1227,-1.1232,-1.1239,-1.1422,-1.1229,-1.1235,-1.1238,-1.1604,-1.1612,-1.1619,0,0,0,0,0,0,-1.1236,-1.1249,-1.1335,-1.1285,-1.1293,-1.1246,-1.1281,-1.1269,-1.1286,-1.125,-1.124,-1.124,-1.1223,-1.123,-1.1331,-1.142,-1.1238,-1.1243,-1.1596,-1.1606,-1.1615,-1.1788,0,0,0,0,0,0,-1.1233,-1.1249,-1.1306,-1.1287,-1.1297,-1.1427,-1.1286,-1.1274,-1.1296,-1.1281,-1.1272,-1.1265,-1.1218,-1.1322,-1.1337,-1.1425,-1.1248,-1.1588,-1.1601,-1.1612,-1.1774,-1.1802,-1.1826,0,0,0,0,0,-1.1229,-1.1356,-1.131,-1.1323,-1.1368,-1.1432,-1.1438,-1.138,-1.1304,-1.1362,-1.1339,-1.1266,-1.1407,-1.1334,-1.1349,-1.144,-1.1582,-1.1597,-1.1611,-1.1763,-1.1797,-1.1826,0,0,0,0,0,0,-1.1389,-1.1352,-1.1301,-1.1425,-1.1433,-1.1407,-1.148,-1.1417,-1.1448,-1.1433,-1.136,-1.136,-1.1472,-1.1465,-1.1385,-1.159,-1.1482,-1.15,-1.1592,-1.1624,-1.1649,-1.1651,-1.1253,0,0,0,0,0,-1.1438,-1.1492,-1.1457,-1.157,-1.1576,-1.1528,-1.1554,-1.1508,-1.1513,-1.1516,-1.15,-1.151,-1.1556,-1.1589,-1.1629,-1.177,-1.1768,-1.1841,-1.1867,-1.1888,-1.1906,-1.1982,-1.2015,-1.1666,-1.1666,-1.1665,0,0,-1.1542,-1.1528,-1.1567,-1.1602,-1.1603,-1.1662,-1.1532,-1.16,-1.1644,-1.1527,-1.1621,-1.161,-1.1615,-1.1737,-1.179,-1.1735,-1.2001,-1.1907,-1.1924,-1.193,-1.2001,-1.2034,-1.2063,-1.1675,-1.1674,-1.1672,0,0,-1.1762,-1.1756,-1.185,-1.1852,-1.1854,-1.182,-1.1843,-1.1826,-1.1814,-1.1906,-1.182,-1.1871,-1.1953,-1.1961,-1.1976,-1.2197,-1.2131,-1.2211,-1.235,-1.2425,-1.2452,-1.2477,-1.2559,-1.2588,-1.2228,-1.2229,-1.2229,0,-1.1892,-1.1976,-1.1907,-1.1981,-1.2,-1.1894,-1.199,-1.1996,-1.2012,-1.2028,-1.1965,-1.2065,-1.2061,-1.2184,-1.2238,-1.2252,-1.2278,-1.2215,-1.2453,-1.2477,-1.2499,-1.2576,-1.2607,-1.2239,-1.2238,-1.2237,-1.2236,0,-1.2136,-1.2196,-1.2272,-1.2289,-1.2315,-1.24,-1.2346,-1.2381,-1.2332,-1.2306,-1.2402,-1.2393,-1.2431,-1.2455,-1.2409,-1.2573,-1.2539,-1.2466,-1.2356,-1.2543,-1.2615,-1.2644,-1.2253,-1.225,-1.2247,-1.2244,0,0,-1.2462,-1.2437,-1.2466,-1.2473,-1.2465,-1.2511,-1.2591,-1.2626,-1.2659,-1.2672,-1.274,-1.281,-1.2742,-1.2759,-1.2712,-1.2777,-1.2956,-1.2696,-1.2695,-1.2748,-1.3139,-1.3197,-1.3233,-1.291,-1.2915,-1.292,-1.314,0,-1.2678,-1.2813,-1.2752,-1.2895,-1.295,-1.2849,-1.2919,-1.2923,-1.29,-1.2945,-1.2918,-1.2971,-1.2875,-1.2885,-1.2945,-1.2922,-1.3034,-1.2904,-1.2975,-1.2979,-1.2982,-1.3269,-1.3331,-1.3539,-1.3167,-1.3171,-1.3175,0,-1.295,-1.2973,-1.3121,-1.3103,-1.3124,-1.3189,-1.3216,-1.3259,-1.3261,-1.324,-1.3258,-1.3196,-1.3274,-1.3161,-1.327,-1.3183,-1.3208,-1.3201,-1.3207,-1.3216,-1.3092,-1.329,-1.3604,-1.3637,-1.3218,-1.3214,-1.3211,0,-1.3177,-1.3245,-1.3342,-1.335,-1.3332,-1.3379,-1.3374,-1.337,-1.3395,-1.3419,-1.3435,-1.3468,-1.3487,-1.3515,-1.3464,-1.3386,-1.3581,-1.3463,-1.3568,-1.357,-1.3618,-1.3616,-1.3945,-1.3627,-1.3626,-1.3626,-1.3625,0,-1.3427,-1.3523,-1.3444,-1.3505,-1.3608,-1.3537,-1.3643,-1.3626,-1.3623,-1.368,-1.3593,-1.3649,-1.3576,-1.3624,-1.3584,-1.3682,-1.3691,-1.3677,-1.3667,-1.3688,-1.369,-1.3707,-1.3693,-1.3634,-1.3632,-1.363,-1.3629,0,-1.3701,-1.3651,-1.3752,-1.3725,-1.372,-1.3799,-1.3776,-1.3832,-1.3801,-1.3874,-1.3887,-1.3839,-1.3892,-1.3842,-1.3892,-1.3865,-1.3997,-1.3963,-1.3997,-1.3989,-1.4098,-1.409,-1.4452,-1.4498,-1.4147,-1.415,-1.4153,0,-1.3866,-1.3937,-1.3917,-1.3948,-1.3948,-1.3999,-1.4023,-1.3955,-1.3985,-1.3992,-1.4048,-1.4092,-1.4125,-1.4214,-1.4185,-1.4223,-1.4192,-1.4316,-1.4198,-1.4217,-1.4199,-1.4197,-1.4205,-1.4342,-1.4346,-1.435,-1.4353,0,-1.4167,-1.4138,-1.4176,-1.4206,-1.4237,-1.4258,-1.4272,-1.4302,-1.4232,-1.427,-1.4321,-1.4347,-1.4396,-1.4443,-1.4472,-1.4467,-1.4401,-1.4389,-1.4416,-1.4441,-1.4459,-1.4455,-1.4067,-1.4383,-1.438,-1.4377,-1.4376,-1.4375,-1.4394,-1.4452,-1.4448,-1.4493,-1.4496,-1.4511,-1.4562,-1.4536,-1.4578,-1.4613,-1.4569,-1.4634,-1.4634,-1.4666,-1.4669,-1.4719,-1.4667,-1.4706,-1.4716,-1.4728,-1.4746,-1.4447,-1.4724,-1.4723,-1.4722,-1.4721,-1.472,0,-1.4693,-1.4684,-1.4726,-1.4748,-1.4784,-1.4713,-1.4724,-1.476,-1.4817,-1.4822,-1.4855,-1.4916,-1.496,-1.4933,-1.4971,-1.5017,-1.4987,-1.503,-1.5028,-1.5029,-1.4788,-1.4763,-1.5053,-1.5053,-1.5053,-1.5053,-1.5053,-1.5053,-1.4853,-1.4949,-1.492,-1.5017,-1.5007,-1.5069,-1.5082,-1.5096,-1.5099,-1.517,-1.5206,-1.5187,-1.518,-1.5217,-1.5255,-1.5245,-1.5265,-1.532,-1.5301,-1.5078,-1.5045,-1.5014,-1.499,-1.5324,-1.5324,-1.5538,-1.554,-1.5541]},{"header":{"parameterUnit":"m.s-1","parameterCategory":1,"la1":30.2991,"la2":30.254,"lo1":-89.0895,"lo2":-89.0444,"dx":0.0017,"dy":0.0017,"nx":28,"ny":28,"refTime":"2022-11-19T09:00:00:Z","depth":0,"parameterNumber":3,"parameterNumberName":"V-component_of_WINDS"},"data":[0,0,0,0,0,0,0,0,0,0,0,0,0,0,0,0,0,0,0,0,0,0,0,0,0,0,0,0,0,0,0,0,0,0,0,0,0,0,0,0,0,0,0,0,0,0,0,0,0,0,0,0,0,0,0,0,0,0,-4.9225,-4.9226,0,-4.9304,-4.9305,-4.9305,-4.9197,-4.9193,-4.9189,-4.9186,-4.9263,-4.9268,-4.9274,0,0,0,0,0,0,0,0,0,0,0,0,0,-4.8977,-4.8982,-4.9225,-4.9226,-4.9227,-4.9304,-4.9305,-4.9306,-4.9198,-4.9193,-4.9188,-4.9184,-4.9261,-4.9267,-4.9274,0,0,0,0,0,0,0,0,0,0,0,0,0,-4.9073,-4.8984,-4.9225,-4.9183,-4.9179,-4.9303,-4.9305,-4.9306,-4.9199,-4.9193,-4.9187,-4.9182,-4.9259,-4.9267,-4.9275,-4.9443,0,0,-4.9301,-4.9305,0,0,0,0,0,0,0,0,-4.9068,-4.9082,-4.9188,-4.9186,-4.9182,-4.9235,-4.9245,-4.9352,-4.92,-4.9191,-4.9186,-4.9179,-4.9258,-4.9266,-4.9293,-4.9447,-4.945,-4.9302,-4.9307,-4.9311,-4.9313,0,0,0,0,0,0,0,-4.9061,-4.9078,-4.9256,-4.9189,-4.9186,-4.9158,-4.9165,-4.9265,-4.9256,-4.9192,-4.9184,-4.9195,-4.9255,-4.9285,-4.9294,-4.9451,-4.9302,-4.9309,-4.9314,-4.9318,-4.9745,-4.9751,0,0,0,0,0,0,-4.906,-4.9074,-4.9253,-4.9258,-4.911,-4.9167,-4.9175,-4.9224,-4.9255,-4.9254,-4.92,-4.919,-4.9274,-4.9285,-4.9297,-4.9495,-4.931,-4.9318,-4.9323,-4.9739,-4.9747,-4.9754,0,0,0,0,0,0,-4.9055,-4.9077,-4.925,-4.9164,-4.9184,-4.9178,-4.9233,-4.9228,-4.9258,-4.9261,-4.9258,-4.9233,-4.927,-4.9285,-4.9408,-4.9497,-4.9322,-4.933,-4.9732,-4.9741,-4.975,-4.9895,0,0,0,0,0,0,-4.9049,-4.9076,-4.9141,-4.9166,-4.9189,-4.9362,-4.9238,-4.9234,-4.9274,-4.9261,-4.9291,-4.929,-4.9266,-4.9396,-4.9416,-4.9505,-4.9336,-4.9724,-4.9736,-4.9747,-4.9882,-4.9908,-4.993,0,0,0,0,0,-4.904,-4.9178,-4.9145,-4.9167,-4.927,-4.9367,-4.938,-4.9351,-4.9281,-4.9346,-4.9347,-4.9289,-4.9483,-4.9409,-4.9431,-4.9524,-4.9718,-4.9733,-4.9746,-4.9871,-4.9903,-4.9929,0,0,0,0,0,0,-4.9162,-4.9181,-4.9144,-4.9294,-4.933,-4.9349,-4.9429,-4.9385,-4.944,-4.9426,-4.9386,-4.9394,-4.9525,-4.9536,-4.9454,-4.9688,-4.9589,-4.9608,-4.9676,-4.9706,-4.973,-4.9725,-4.9343,0,0,0,0,0,-4.9207,-4.9286,-4.9296,-4.9428,-4.9448,-4.9436,-4.9477,-4.9451,-4.9486,-4.9501,-4.9511,-4.9546,-4.9614,-4.9661,-4.9724,-4.9882,-4.9887,-4.9957,-4.9981,-5.0001,-5.0018,-5.0103,-5.0134,-4.98,-4.98,-4.98,0,0,-4.93,-4.9319,-4.9371,-4.9453,-4.9478,-4.9559,-4.9449,-4.954,-4.96,-4.9514,-4.9631,-4.964,-4.9676,-4.9818,-4.9881,-4.9831,-5.0111,-5.0019,-5.0035,-5.0041,-5.0121,-5.0152,-5.018,-4.981,-4.9808,-4.9806,0,0,-4.951,-4.9533,-4.9645,-4.9672,-4.9712,-4.9703,-4.973,-4.9755,-4.9758,-4.9875,-4.9813,-4.9882,-5.0001,-5.003,-5.006,-5.0281,-5.023,-5.0302,-5.0428,-5.0511,-5.0538,-5.0561,-5.064,-5.0669,-5.0319,-5.032,-5.032,0,-4.962,-4.9742,-4.9708,-4.9804,-4.9841,-4.9768,-4.9881,-4.9908,-4.9966,-4.9993,-4.9936,-5.0085,-5.0104,-5.0251,-5.0305,-5.0332,-5.0361,-5.0299,-5.0537,-5.0559,-5.0581,-5.0656,-5.0686,-5.0328,-5.0327,-5.0326,-5.0325,0,-4.9875,-4.996,-5.0045,-5.0105,-5.0151,-5.0255,-5.0236,-5.0287,-5.0257,-5.0254,-5.0373,-5.0394,-5.046,-5.0492,-5.0463,-5.0636,-5.0604,-5.0543,-5.0443,-5.0622,-5.0692,-5.072,-5.0341,-5.0337,-5.0335,-5.0333,0,0,-5.0166,-5.0205,-5.0237,-5.0263,-5.0301,-5.0365,-5.0464,-5.053,-5.0575,-5.0617,-5.0699,-5.0801,-5.0745,-5.0779,-5.0752,-5.0825,-5.0999,-5.0755,-5.0755,-5.08,-5.1191,-5.1238,-5.1272,-5.0965,-5.097,-5.0975,-5.1188,0,-5.0377,-5.0552,-5.0524,-5.0692,-5.0769,-5.0701,-5.0787,-5.0819,-5.0818,-5.0883,-5.088,-5.0954,-5.0874,-5.0894,-5.0963,-5.0964,-5.1077,-5.0948,-5.1041,-5.1045,-5.1036,-5.1308,-5.1358,-5.1559,-5.1215,-5.122,-5.1223,0,-5.0647,-5.0701,-5.0877,-5.0902,-5.0934,-5.1013,-5.1071,-5.1133,-5.1167,-5.1161,-5.12,-5.116,-5.1257,-5.1155,-5.1289,-5.1202,-5.1238,-5.1244,-5.1251,-5.1259,-5.1146,-5.1325,-5.1622,-5.1653,-5.1266,-5.1262,-5.1259,0,-5.0843,-5.0958,-5.1079,-5.1103,-5.1135,-5.1192,-5.1208,-5.1236,-5.1278,-5.1328,-5.1354,-5.1414,-5.1448,-5.1495,-5.1471,-5.1399,-5.161,-5.1505,-5.1607,-5.1608,-5.1656,-5.1654,-5.1964,-5.1678,-5.1677,-5.1677,-5.1676,0,-5.1083,-5.1194,-5.1168,-5.1242,-5.1363,-5.1329,-5.145,-5.1457,-5.1483,-5.1556,-5.1499,-5.1569,-5.1533,-5.16,-5.1582,-5.1696,-5.1711,-5.1709,-5.1703,-5.1715,-5.1715,-5.1739,-5.1725,-5.1684,-5.1683,-5.1681,-5.168,0,-5.1323,-5.131,-5.1437,-5.1457,-5.1465,-5.1554,-5.157,-5.1639,-5.1633,-5.1727,-5.1747,-5.1738,-5.1813,-5.1794,-5.1876,-5.1864,-5.2008,-5.1984,-5.1998,-5.1992,-5.2096,-5.2087,-5.2433,-5.2477,-5.2161,-5.2164,-5.2167,0,-5.1477,-5.1561,-5.1591,-5.1637,-5.1657,-5.1732,-5.1774,-5.1743,-5.1789,-5.1834,-5.1897,-5.1968,-5.2023,-5.2147,-5.2147,-5.2209,-5.2187,-5.2304,-5.2196,-5.2205,-5.219,-5.2186,-5.2194,-5.2326,-5.2329,-5.2332,-5.2335,0,-5.1753,-5.1743,-5.1807,-5.1869,-5.1921,-5.1968,-5.2009,-5.2049,-5.2021,-5.2076,-5.2153,-5.2196,-5.228,-5.2351,-5.2409,-5.2423,-5.2375,-5.2368,-5.2396,-5.241,-5.2415,-5.2414,-5.2058,-5.2361,-5.2358,-5.2356,-5.2355,-5.2354,-5.1956,-5.2027,-5.206,-5.2133,-5.216,-5.22,-5.2266,-5.2269,-5.2334,-5.2401,-5.2378,-5.2467,-5.2497,-5.2569,-5.2591,-5.2659,-5.2614,-5.2653,-5.2663,-5.2674,-5.2687,-5.2403,-5.2669,-5.2668,-5.2667,-5.2666,-5.2666,0,-5.223,-5.2247,-5.2315,-5.2375,-5.2432,-5.2382,-5.2425,-5.2476,-5.2555,-5.2588,-5.2644,-5.2733,-5.2801,-5.2807,-5.2871,-5.2924,-5.2904,-5.2942,-5.2938,-5.2943,-5.2723,-5.2694,-5.2958,-5.2957,-5.2957,-5.2957,-5.2957,-5.2957,-5.2379,-5.2498,-5.2491,-5.2622,-5.2638,-5.2726,-5.2754,-5.2791,-5.2817,-5.2919,-5.2977,-5.298,-5.3001,-5.3066,-5.3127,-5.3126,-5.3153,-5.32,-5.3192,-5.2987,-5.2958,-5.293,-5.2903,-5.3206,-5.3206,-5.3405,-5.3407,-5.3409]}]]